HS5XHC-1 Weather Reports


time (UTC)temp
F
wind
direction
speed
knots
gust
knots
rain 1hr
in
rain 24hr
in
rain mn
in
humidity
%
barometer
mb
20260504205509 81 0 0.0 0.0 0.00 0.00 0.00 55 969.0
20260504204445 81 0 0.0 0.0 0.00 0.00 0.00 55 969.0
20260504203421 81 0 0.0 0.0 0.00 0.00 0.00 55 969.0
20260504202357 82 0 0.0 0.0 0.00 0.00 0.00 54 969.0
20260504201332 81 0 0.0 0.0 0.00 0.00 0.00 55 969.0
20260504200309 82 0 0.0 0.0 0.00 0.00 0.00 53 969.0
20260504195908 81 0 0.0 0.0 0.00 0.00 0.00 55 969.0
20260504194844 82 0 0.0 0.0 0.00 0.00 0.00 54 969.0
20260504193821 83 0 0.0 0.0 0.00 0.00 0.00 53 969.0
20260504192757 82 0 0.0 0.0 0.00 0.00 0.00 53 970.0
20260504191732 82 0 0.0 0.0 0.00 0.00 0.00 53 969.0
20260504190708 80 0 0.0 0.0 0.00 0.00 0.00 56 969.0
20260504185644 82 0 0.0 0.0 0.00 0.00 0.00 53 969.0
20260504184620 82 0 0.0 0.0 0.00 0.00 0.00 51 969.0
20260504183557 83 0 0.0 0.0 0.00 0.00 0.00 51 969.0
20260504182532 83 0 0.0 0.0 0.00 0.00 0.00 51 969.0
20260504181509 83 0 0.0 0.0 0.00 0.00 0.00 51 969.0
20260504180445 83 0 0.0 0.0 0.00 0.00 0.00 51 969.0
20260504175420 83 0 0.0 0.0 0.00 0.00 0.00 49 969.0
20260504174356 82 0 0.0 0.0 0.00 0.00 0.00 49 969.0
20260504173332 81 0 0.0 0.0 0.00 0.00 0.00 50 969.0
20260504172308 81 0 0.0 0.0 0.00 0.00 0.00 52 969.0
20260504171244 82 0 0.0 0.0 0.00 0.00 0.00 51 970.0
20260504170220 83 0 0.0 0.0 0.00 0.00 0.00 51 970.0
20260504150730 90 0 0.0 0.0 0.00 0.00 0.00 41 967.0
20260504140506 94 0 0.0 0.0 0.00 0.00 0.00 34 966.0
20260504130242 95 0 0.0 0.0 0.00 0.00 0.00 31 965.0
20260504100553 99 0 0.0 0.0 0.00 0.00 0.00 25 963.0
20260504081129 99 0 0.0 0.0 0.00 0.00 0.00 25 965.0
20260504080105 97 0 0.0 0.0 0.00 0.00 0.00 27 965.0
20260504050418 93 0 0.0 0.0 0.00 0.00 0.00 36 968.0
20260504045354 92 0 0.0 0.0 0.00 0.00 0.00 36 969.0
20260504044330 91 0 0.0 0.0 0.00 0.00 0.00 36 969.0
20260504043306 91 0 0.0 0.0 0.00 0.00 0.00 37 969.0
20260504042242 89 0 0.0 0.0 0.00 0.00 0.00 39 969.0
20260504041218 89 0 0.0 0.0 0.00 0.00 0.00 41 969.0
20260504040155 89 0 0.0 0.0 0.00 0.00 0.00 40 969.0
20260504035130 88 0 0.0 0.0 0.00 0.00 0.00 42 969.0
20260504034106 87 0 0.0 0.0 0.00 0.00 0.00 42 969.0
20260504033042 85 0 0.0 0.0 0.00 0.00 0.00 45 970.0
20260504032018 85 0 0.0 0.0 0.00 0.00 0.00 47 970.0
20260504030954 85 0 0.0 0.0 0.00 0.00 0.00 46 970.0
20260504025930 85 0 0.0 0.0 0.00 0.00 0.00 49 970.0
20260504024906 84 0 0.0 0.0 0.00 0.00 0.00 50 970.0
20260504023842 84 0 0.0 0.0 0.00 0.00 0.00 51 970.0
20260504022818 83 0 0.0 0.0 0.00 0.00 0.00 52 970.0
20260504021754 82 0 0.0 0.0 0.00 0.00 0.00 54 970.0
20260504020730 82 0 0.0 0.0 0.00 0.00 0.00 55 970.0
20260504015706 82 0 0.0 0.0 0.00 0.00 0.00 55 970.0
20260504014642 81 0 0.0 0.0 0.00 0.00 0.00 57 970.0
20260504013618 80 0 0.0 0.0 0.00 0.00 0.00 58 970.0
20260504012554 81 0 0.0 0.0 0.00 0.00 0.00 58 969.0
20260504011530 80 0 0.0 0.0 0.00 0.00 0.00 59 969.0
20260504010506 80 0 0.0 0.0 0.00 0.00 0.00 57 969.0
20260504004418 80 0 0.0 0.0 0.00 0.00 0.00 57 969.0
20260504003354 81 0 0.0 0.0 0.00 0.00 0.00 56 969.0
20260504002329 81 0 0.0 0.0 0.00 0.00 0.00 57 969.0
20260504001305 80 0 0.0 0.0 0.00 0.00 0.00 58 969.0
20260504000241 81 0 0.0 0.0 0.00 0.00 0.00 56 968.0
20260503235217 78 0 0.0 0.0 0.00 0.00 0.00 60 968.0
20260503234153 79 0 0.0 0.0 0.00 0.00 0.00 60 968.0
20260503233129 79 0 0.0 0.0 0.00 0.00 0.00 60 968.0
20260503232105 79 0 0.0 0.0 0.00 0.00 0.00 58 968.0
20260503231042 81 0 0.0 0.0 0.00 0.00 0.00 55 968.0
20260503230018 81 0 0.0 0.0 0.00 0.00 0.00 54 968.0
20260503224954 82 0 0.0 0.0 0.00 0.00 0.00 54 968.0
20260503223929 82 0 0.0 0.0 0.00 0.00 0.00 54 968.0
20260503222905 82 0 0.0 0.0 0.00 0.00 0.00 54 968.0
20260503221841 81 0 0.0 0.0 0.00 0.00 0.00 54 968.0
20260503220817 82 0 0.0 0.0 0.00 0.00 0.00 53 967.0
20260503215753 82 0 0.0 0.0 0.00 0.00 0.00 54 967.0
20260503214729 82 0 0.0 0.0 0.00 0.00 0.00 53 967.0
20260503213705 82 0 0.0 0.0 0.00 0.00 0.00 54 967.0
20260503212641 80 0 0.0 0.0 0.00 0.00 0.00 55 967.0
20260503211618 81 0 0.0 0.0 0.00 0.00 0.00 55 967.0
20260503210554 80 0 0.0 0.0 0.00 0.00 0.00 57 967.0